Location: Crémille
(46.7466°N, 0.7961°E)
Time: 10:09:39
(UTC+00:00)

Daily predictions for brighter satellites

Satellite Brightness Start Highest point End
(mag) Time Altitude Azimuth Time Altitude Azimuth Time Altitude Azimuth
CZ-4B R/B 3.3 19:12:09 10° SSE 19:17:43 66° ENE 19:23:15 10° N
Cosmos 1821 Rocket 4.1 19:17:29 10° N 19:23:35 58° ENE 19:29:35 10° SSE
SL-27 R/B 2.0 19:21:17 10° NNW 19:24:10 59° ENE 19:26:59 10° SSE
Cosmos 2218 Rocket 4.2 19:17:44 10° N 19:24:11 85° W 19:30:31 10° S
USA 186 1.7 19:21:13 10° SSE 19:24:12 57° ENE 19:27:09 10° N
BREEZE-M R/B 2.7 19:22:00 10° WNW 19:24:45 43° N 19:27:06 10° ENE
Cosmos 1825 3.8 19:22:21 10° NNW 19:25:30 33° W 19:28:37 10° SSW
SPOT 1/Viking Rocket 3.6 19:21:03 10° SSE 19:26:16 87° ENE 19:31:32 10° NNW
USA 267 3.4 19:21:39 10° NE 19:28:14 89° NNW 19:34:48 10° SW
Okean O Rocket 1.8 19:26:09 10° SSE 19:30:22 52° ENE 19:34:39 10° N
Feng Yun 1-1 Rocket 4.3 19:25:47 10° SSE 19:31:18 73° ENE 19:37:00 10° NNW
Cosmos 1782 Rocket 4.0 19:29:37 10° SSW 19:33:58 67° W 19:38:24 10° N
Cosmos 1486 Rocket 4.1 19:29:56 10° NNW 19:35:07 62° ENE 19:40:15 10° SSE
CZ-4 R/B 1.9 19:31:34 10° S 19:35:25 59° W 19:39:15 10° NNW
Cosmos 1536 Rocket 4.4 19:38:02 10° N 19:42:03 33° ENE 19:45:49 11° SE
SJ 16-02 3.2 19:39:24 10° NW 19:43:12 30° W 19:46:56 10° SSW
Resurs 01 Rocket 1.6 19:40:42 10° SSE 19:45:06 76° ENE 19:49:32 10° N
DELTA 2 DEB (DPAF) 3.9 19:42:33 10° NNE 19:46:49 76° ESE 19:51:02 10° S
CENTAUR R/B 4.4 19:42:08 10° NW 19:48:38 29° NNE 19:56:01 10° E
NOSS 3-1 (A) 3.0 19:45:43 10° SSW 19:50:31 63° ESE 19:56:17 10° NE
Cosmos 1300 Rocket 4.4 19:48:08 10° SSW 19:52:25 54° WNW 19:56:46 10° N
ERS-1 Rocket 4.3 19:51:27 13° ESE 19:54:34 23° ENE 19:58:29 10° N
Tiangong -0.5 19:54:38 10° SSW 19:56:47 17° SSE 19:57:17 17° SSE
USA 229 DEB 4.2 19:54:24 10° S 19:59:37 31° ESE 20:05:13 10° NE
USA 229 4.2 19:54:31 10° S 19:59:43 30° ESE 20:05:18 10° NE
Cosmos 1934 Rocket 4.3 19:55:03 10° N 20:01:02 50° ENE 20:06:25 13° SSE
Cosmos 2151 Rocket 3.7 19:57:42 10° S 20:01:57 51° E 20:06:16 10° NNE
USA 234 3.4 19:58:35 13° SE 20:04:29 71° SW 20:11:02 10° NW
USA 281 3.2 19:59:02 11° SE 20:05:17 76° ENE 20:11:52 10° NNW
ATLAS CENTAUR R/B 3.5 20:05:34 10° N 20:07:32 14° NNE 20:09:34 10° ENE
Cosmos 2227 Rocket 3.5 20:04:07 10° N 20:08:54 27° NE 20:12:21 15° E
NOSS 3-1 (C) 4.1 20:06:13 10° WSW 20:11:06 52° NW 20:17:02 10° NE
Iridium 2 3.5 20:10:38 10° N 20:13:26 40° E 20:14:16 31° ESE
SL-4 R/B 2.6 20:12:10 10° WNW 20:15:38 40° N 20:17:57 17° ENE
Cosmos 371 Rocket 3.2 20:12:53 10° NNW 20:17:42 84° ENE 20:21:07 19° SSE
Landsat 4 4.4 20:17:01 26° ESE 20:18:10 33° ENE 20:21:23 10° N
MetOp-B 4.3 20:15:38 19° SE 20:19:27 58° ENE 20:24:43 10° N
Cosmos 1697 Rocket 3.8 20:18:57 21° ESE 20:19:44 21° E 20:23:54 10° NE
CSL-04 Rocket 4.4 20:14:57 10° S 20:20:20 55° W 20:25:42 10° NNW
Cosmos 304 Rocket 3.7 20:16:45 10° NNW 20:21:32 75° ENE 20:24:31 23° SSE
Cosmos 1777 Rocket 4.0 20:16:51 10° NNW 20:22:09 79° ENE 20:25:46 21° SSE
Okean 2 Rocket 3.0 20:19:30 10° S 20:23:59 82° E 20:28:30 10° N
ATLAS 3B R/B 3.0 20:17:13 10° SW 20:24:20 79° NW 20:32:00 10° NE
COSMOS 2455 3.3 20:18:36 10° NNW 20:24:27 48° NE 20:27:59 23° ESE
Alouette 2 Rocket 4.4 20:17:25 10° N 20:24:57 69° ENE 20:28:14 22° SSE
SPOT 5 3.1 20:26:04 21° SSE 20:29:37 67° ENE 20:34:49 10° N
IRS-1A Rocket 4.4 20:28:48 22° SSE 20:32:44 67° ENE 20:38:32 10° N
Cosmos 405 Rocket 3.9 20:33:26 24° ENE 20:33:26 24° ENE 20:36:02 10° NE
BlueWalker 3 1.8 20:33:29 10° SW 20:37:17 83° SSE 20:40:37 14° ENE
CZ-4C R/B 3.4 20:30:43 10° NNW 20:37:25 50° NE 20:42:37 22° ESE
Cosmos 2297 Rocket 2.2 20:32:01 10° NNW 20:37:41 68° ENE 20:40:35 29° SE
Spot 2 Rocket 4.0 20:36:25 29° ESE 20:38:26 42° ENE 20:43:10 10° N
Cosmos 1503 Rocket 4.4 20:34:27 10° NNW 20:39:46 62° WSW 20:43:36 19° S
Terra 2.2 20:40:08 32° ESE 20:41:49 47° ENE 20:46:21 10° N
Cosmos 1656 3.5 20:37:03 10° SSW 20:42:36 76° ESE 20:48:07 10° NNE
Cosmos 1354 Rocket 4.1 20:37:24 10° NNW 20:42:45 76° WSW 20:45:57 25° S
Cosmos 1455 Rocket 3.6 20:46:45 36° ESE 20:47:08 37° E 20:51:10 10° NNE
Okean 1 Rocket 3.0 20:44:00 18° S 20:47:19 88° ESE 20:51:50 10° N
Sich 1 Rocket 4.2 20:43:23 10° SSW 20:47:43 56° WNW 20:52:07 10° N
ATLAS 5 CENTAUR R/B 3.7 20:45:26 10° W 20:48:12 22° NNW 20:51:16 10° NNE
Iridium 4 Rocket 3.7 20:44:01 18° S 20:48:18 84° E 20:54:09 10° N
USA 245 3.8 20:46:54 33° SE 20:49:09 67° ENE 20:53:30 10° N
Cosmos 332 Rocket 3.8 20:45:23 10° NNW 20:50:14 65° ENE 20:51:53 39° SE
Okean-O 3.6 20:48:37 16° SSW 20:51:55 45° W 20:56:10 10° NNW
Cosmos 2219 4.3 20:47:25 10° NNW 20:52:26 31° NE 20:54:33 24° E
CZ-4C R/B 4.3 20:53:10 10° N 20:56:22 38° WNW 20:59:31 10° SW
Ariane Rocket 3.0 20:56:30 40° SE 20:58:12 62° ENE 21:03:11 10° N
Cosmos 1763 Rocket 3.4 20:57:45 35° SSE 20:59:40 57° ESE 21:04:42 10° NNE
Genesis I 3.8 20:56:39 10° NW 21:00:07 42° WSW 21:00:43 38° SSW
Cosmos 1437 Rocket 3.0 20:56:22 10° N 21:00:12 51° ENE 21:00:22 50° E
Cosmos 2263 Rocket 3.5 20:59:27 10° N 21:04:12 27° NE 21:06:06 22° E
Cosmos 44 3.4 20:59:01 10° SSW 21:04:26 83° SE 21:09:47 10° NE
NOSS 8 (F) 4.3 21:02:47 10° NW 21:05:59 89° S 21:06:04 84° SE
Okean O Rocket 4.2 21:04:05 10° SW 21:06:58 17° W 21:09:53 10° NW
ARGOS Delta rocket 4.3 21:08:36 43° ESE 21:10:01 57° ENE 21:15:22 10° N
Cosmos 990 Rocket 3.9 21:05:18 10° NNW 21:10:30 80° ENE 21:11:52 50° SE
USA 267 4.3 21:04:46 10° NE 21:10:55 44° NNW 21:17:01 10° W
Cosmos 1605 Rocket 4.1 21:09:29 10° N 21:15:55 78° W 21:19:09 31° S
Aureole 1 Rocket 3.4 21:13:54 10° NNW 21:15:56 36° N 21:15:56 36° N
Cosmos 540 Rocket 3.4 21:18:45 56° SE 21:19:23 61° ESE 21:24:26 10° NNE
Resurs 01 Rocket 4.4 21:20:19 10° WSW 21:22:05 12° W 21:23:51 10° WNW
Cosmos 1153 Rocket 4.4 21:17:39 10° N 21:23:59 76° E 21:25:55 47° SSE
MOS 1 Rocket 3.1 21:25:21 61° ENE 21:25:21 61° ENE 21:29:41 10° N
Cosmos 2058 3.1 21:22:56 10° N 21:26:27 55° NE 21:26:27 55° NE
Cosmos 1626 Rocket 4.3 21:25:21 10° N 21:29:06 40° ENE 21:29:06 40° ENE
Cosmos 372 Rocket 4.3 21:26:29 10° NNW 21:31:35 50° ENE 21:32:09 48° E
Cosmos 468 Rocket 3.8 21:31:31 63° SSE 21:32:13 74° ESE 21:37:26 10° NNE
ERS-1 Rocket 3.5 21:31:22 37° SSW 21:33:00 52° W 21:37:54 10° NNW
SPOT 3 Rocket 3.7 21:35:46 51° SSW 21:36:58 70° WSW 21:42:10 10° NNW
Cosmos 1802 Rocket 4.4 21:32:04 10° N 21:38:04 45° ENE 21:38:59 43° E
CENTAUR R/B 3.4 21:32:50 10° NW 21:40:55 65° NE 21:44:48 37° ESE
Cosmos 841 Rocket 4.3 21:43:35 36° ENE 21:43:35 36° ENE 21:47:05 10° NE
Landsat 5 3.6 21:39:31 10° NNE 21:43:13 67° N 21:43:13 67° N
Cosmos 2016 Rocket 4.4 21:39:33 10° N 21:45:21 42° ENE 21:45:55 41° E
ATLAS CENTAUR R/B 1.9 21:42:08 10° NW 21:45:04 51° NNW 21:45:04 51° NNW
Cosmos 1544 Rocket 4.3 21:49:27 43° NE 21:49:27 43° NE 21:52:33 10° NNE
Intercosmos 25 4.0 21:44:27 10° N 21:48:13 52° NNE 21:48:13 52° NNE
USA 229 DEB 4.0 21:43:56 10° SW 21:50:02 61° NW 21:56:50 10° NE
USA 229 4.0 21:44:01 10° SW 21:50:08 62° NW 21:56:56 10° NE
Cosmos 1727 Rocket 3.9 21:49:08 48° SSW 21:51:05 85° W 21:57:23 10° N
H-2A R/B 4.3 21:54:16 20° NE 21:54:16 20° NE 21:56:01 10° NNE
Cosmos 2100 Rocket 3.9 21:46:48 10° N 21:53:12 80° E 21:54:16 63° SSE
Cosmos 2227 Rocket 2.4 21:47:45 10° NNW 21:53:21 61° WSW 21:54:10 55° SSW
Cosmos 1980 Rocket 2.5 21:55:14 50° ENE 21:55:14 50° ENE 21:59:51 10° NE
SL-4 R/B 3.6 21:51:06 10° WNW 21:52:47 26° WNW 21:52:47 26° WNW
Cosmos 292 Rocket 3.8 21:52:26 10° NNW 21:56:52 77° N 21:56:52 77° N
Cosmos 1000 Rocket 4.3 22:01:36 68° S 22:02:25 84° E 22:08:35 10° N
Cosmos 1697 Rocket 3.0 22:00:32 32° SW 22:03:09 65° WNW 22:08:49 10° NNE
Cosmos 1937 Rocket 3.4 21:58:29 10° NNW 22:03:46 81° NE 22:03:46 81° NE
Okean 1-7 Rocket 4.3 22:00:34 10° N 22:04:09 50° NNE 22:04:09 50° NNE
Cosmos 2123 Rocket 4.0 22:05:46 61° ESE 22:05:58 61° E 22:12:13 10° NNE
COSMOS 2455 3.8 22:04:49 10° NW 22:10:14 36° WSW 22:11:08 34° SW
Cosmos 1602 Rocket 4.4 22:08:07 10° N 22:11:18 45° NNE 22:11:18 45° NNE
Cosmos 1758 Rocket 4.2 22:08:41 10° N 22:12:06 52° N 22:12:06 52° N
Cosmos 2228 4.2 22:14:51 36° NNE 22:14:51 36° NNE 22:17:25 10° NNE
BlueWalker 3 3.7 22:12:18 10° W 22:15:07 32° NW 22:15:07 32° NW
ARIANE 5 R/B 3.5 22:17:17 46° NNE 22:17:17 46° NNE 22:20:41 10° N
Cosmos 1898 Rocket 3.8 22:11:19 10° NNW 22:16:18 59° W 22:16:18 59° W
Terra 3.6 22:18:50 21° WSW 22:19:39 22° W 22:23:19 10° NW
Cosmos 2297 Rocket 4.0 22:17:08 10° NW 22:21:09 20° W 22:22:24 19° WSW
CZ-4C R/B 3.3 22:19:03 10° NW 22:26:13 55° WSW 22:27:43 49° SSW
Cosmos 2369 3.9 22:27:50 63° NE 22:27:50 63° NE 22:32:36 10° NNE
NOSS 3-2 (C) 4.5 22:24:34 10° NW 22:31:39 53° NE 22:34:32 38° E
SL-08 R/B 4.4 22:26:06 10° N 22:32:28 80° E 22:32:34 80° E
Meteor 2-8 Rocket 4.3 22:27:27 10° N 22:33:40 87° E 22:33:42 87° ESE
ALOS 2 4.3 22:35:57 26° NE 22:35:57 26° NE 22:38:33 10° N
Cosmos 1725 Rocket 3.8 22:28:50 10° N 22:35:03 86° W 22:35:10 85° SW
Cosmos 2233 Rocket 4.0 22:29:16 10° N 22:35:19 66° ENE 22:35:19 66° ENE
Cosmos 1459 Rocket 4.2 22:30:08 10° NNW 22:36:03 56° W 22:36:35 54° WSW
Cosmos 2219 3.7 22:31:22 10° NW 22:36:27 48° W 22:36:27 48° W
Cosmos 2061 Rocket 3.9 22:35:28 10° N 22:41:57 82° E 22:42:00 82° E
Cosmos 2263 Rocket 2.6 22:42:59 10° NNW 22:47:47 54° WNW 22:47:47 54° WNW
Cosmos 2360 Rocket 4.4 22:51:06 14° ENE 22:51:06 14° ENE 22:52:18 10° ENE
Cosmos 2082 4.3 22:49:39 10° NW 22:54:20 49° W 22:54:20 49° W
Cosmos 2333 Rocket 4.3 23:03:47 15° ENE 23:03:47 15° ENE 23:05:19 10° NE
Cosmos 2322 Rocket 3.9 23:03:59 22° ENE 23:03:59 22° ENE 23:06:26 10° NE
NOSS 3-2 (A) 4.0 22:59:14 10° NW 23:06:43 71° SW 23:07:20 69° SSW
SL-16 R/B 3.0 23:22:57 43° NE 23:22:57 43° NE 23:26:51 10° NNE
Cosmos 1844 4.3 23:18:18 10° NNW 23:23:28 54° NE 23:23:28 54° NE
USA 238 DEB 4.1 23:24:15 10° NW 23:31:31 65° NE 23:32:58 55° E
USA 238 4.1 23:24:21 10° NW 23:31:37 65° NE 23:33:05 55° E
CENTAUR R/B 3.8 23:23:46 10° NW 23:31:39 44° WSW 23:31:56 44° WSW
Cosmos 1125 Rocket 4.3 23:27:54 10° NNW 23:31:49 49° N 23:31:49 49° N
Cosmos 1844 Rocket 3.2 23:27:34 10° NNW 23:32:08 57° N 23:32:08 57° N
Cosmos 1980 Rocket 3.8 23:36:55 24° W 23:38:40 28° NW 23:43:31 10° N
Cosmos 2278 4.2 23:44:41 57° NNW 23:44:41 57° NNW 23:49:28 10° NNE
Timation 2 Rocket 4.2 23:41:51 10° NNW 23:48:19 67° NE 23:48:19 67° NE
